Haines, AK

4:12 PM AKDT on June 22, 2017 (GMT -0800)
Haines

Weather History for PAHN - September, 2012

Change the Weather History Date:

Monday, September 17, 2012

  Actual Average Record
Temperature  
Mean Temperature 52 °F -  
Max Temperature 55 °F 52 °F 64 °F (1983)
Min Temperature 50 °F 44 °F 34 °F (2003)
Degree Days  
Heating Degree Days 12    
Growing Degree Days 2 (Base 50)    
Moisture  
Dew Point 47 °F    
Average Humidity 85    
Maximum Humidity 94    
Minimum Humidity 74    
Precipitation  
Precipitation 0.11 in - - ()
Sea Level Pressure  
Sea Level Pressure 30.07 in    
Wind  
Wind Speed 9 mph (East)    
Max Wind Speed 14 mph    
Max Gust Speed 23 mph    
Visibility 10 miles    
Events Rain    
Averages and records for this station are not official NWS values.
T = Trace of Precipitation, MM = Missing Value Source: NWS Daily Summary

Daily Weather History Graph

Daily Weather History Graph

Search for Another Location

Airport or City:

Trip Planner

Search our weather history database for the weather conditions in past years. The results will help you decide how hot, cold, wet, or windy it might be!

Date:

Astronomy

Sep. 17, 2012 Rise Set
Actual Time 6:36 AM AKDT 7:14 PM AKDT
Civil Twilight 5:55 AM AKDT 7:55 PM AKDT
Nautical Twilight 5:05 AM AKDT 8:44 PM AKDT
Astronomical Twilight 4:10 AM AKDT 9:39 PM AKDT
Moon 9:19 AM AKDT (9/17) 7:11 PM AKDT (9/17)
Length of Visible Light 13h 59m
Length of Day
12h 37m
Waxing Crescent, 4% of the Moon is Illuminated
Sep 17
Waxing Crescent
Sep 22
First Quarter
Sep 29
Full
Oct 7
Last Quarter
Oct 15
New

Hourly Weather History & Observations

Time (AKDT) Temp. Dew Point Humidity Pressure Visibility Wind Dir Wind Speed Gust Speed Precip Events Conditions
12:54 AM 50.0 °F 46.9 °F 89% 30.12 in 8.0 mi ESE 8.1 mph 18.4 mph 0.02 in   Overcast
1:54 AM 50.0 °F 46.9 °F 89% 30.10 in 8.0 mi East 8.1 mph 16.1 mph 0.03 in   Overcast
2:54 AM 50.0 °F 46.9 °F 89% 30.11 in 10.0 mi East 12.7 mph 20.7 mph 0.01 in   Overcast
3:54 AM 50.0 °F 46.9 °F 89% 30.09 in 10.0 mi Variable 6.9 mph - 0.03 in Rain Light Rain
4:54 AM 50.0 °F 46.9 °F 89% 30.09 in 10.0 mi East 8.1 mph - 0.02 in   Overcast
5:54 AM 50.0 °F 46.9 °F 89% 30.08 in 10.0 mi ENE 8.1 mph - 0.00 in Rain Light Rain
6:54 AM 50.0 °F 46.9 °F 89% 30.07 in 10.0 mi ESE 9.2 mph - 0.00 in   Overcast
7:07 AM 50.0 °F 46.4 °F 87% 30.07 in 10.0 mi East 6.9 mph - N/A   Overcast
7:54 AM 50.0 °F 48.0 °F 93% 30.06 in 10.0 mi East 5.8 mph - N/A   Overcast
8:07 AM 50.0 °F 48.2 °F 94% 30.06 in 10.0 mi ESE 6.9 mph - N/A   Overcast
8:54 AM 50.0 °F 48.0 °F 93% 30.06 in 10.0 mi East 8.1 mph - N/A   Overcast
9:31 AM 50.0 °F 48.2 °F 94% 30.04 in 10.0 mi ENE 11.5 mph 19.6 mph N/A   Overcast
9:40 AM 50.0 °F 48.2 °F 94% 30.04 in 10.0 mi East 11.5 mph 19.6 mph N/A   Overcast
9:54 AM 50.0 °F 48.0 °F 93% 30.04 in 10.0 mi East 10.4 mph 20.7 mph N/A   Overcast
10:37 AM 51.8 °F 48.2 °F 88% 30.02 in 10.0 mi East 13.8 mph 23.0 mph N/A   Overcast
10:54 AM 51.1 °F 48.0 °F 89% 30.03 in 10.0 mi East 10.4 mph 19.6 mph N/A   Overcast
11:54 AM 52.0 °F 48.0 °F 86% 30.02 in 10.0 mi ENE 12.7 mph 19.6 mph N/A   Overcast
12:54 PM 52.0 °F 48.9 °F 89% 30.04 in 10.0 mi ESE 9.2 mph 17.3 mph N/A   Overcast
1:54 PM 53.1 °F 48.9 °F 86% 30.04 in 10.0 mi East 11.5 mph 18.4 mph N/A   Overcast
2:44 PM 55.4 °F 48.2 °F 77% 30.03 in 10.0 mi ESE 13.8 mph 23.0 mph N/A   Overcast
2:54 PM 55.0 °F 48.9 °F 80% 30.04 in 10.0 mi East 12.7 mph 21.9 mph N/A   Overcast
3:34 PM 55.4 °F 48.2 °F 77% 30.05 in 10.0 mi ESE 11.5 mph 19.6 mph N/A   Mostly Cloudy
3:54 PM 55.9 °F 48.9 °F 77% 30.06 in 10.0 mi ESE 11.5 mph 19.6 mph N/A   Mostly Cloudy
4:54 PM 54.0 °F 46.9 °F 77% 30.06 in 10.0 mi Variable 6.9 mph 18.4 mph N/A   Mostly Cloudy
5:54 PM 54.0 °F 46.9 °F 77% 30.06 in 10.0 mi ESE 8.1 mph 17.3 mph N/A   Scattered Clouds
6:54 PM 52.0 °F 46.0 °F 80% 30.09 in 10.0 mi East 6.9 mph - N/A   Scattered Clouds
7:54 PM 52.0 °F 44.1 °F 74% 30.11 in 10.0 mi Variable 4.6 mph 16.1 mph N/A   Mostly Cloudy
8:54 PM 51.1 °F 43.0 °F 74% 30.12 in 10.0 mi ESE 6.9 mph - N/A   Mostly Cloudy
9:54 PM 51.1 °F 43.0 °F 74% 30.13 in 10.0 mi East 9.2 mph 16.1 mph N/A   Mostly Cloudy
10:54 PM 51.1 °F 44.1 °F 77% 30.15 in 10.0 mi East 8.1 mph 17.3 mph N/A   Scattered Clouds
11:54 PM 50.0 °F 43.0 °F 77% 30.16 in 10.0 mi ENE 8.1 mph - N/A   Clear